| time (UTC) | temp F | wind direction | speed MPH | gust MPH | rain 1hr in | rain 24hr in | rain mn in | humidity % | barometer mb |
| 20260505053047 | 71 | 0 | 0.0 | 2.0 | 0.00 | 0.00 | 0.00 | 85 | 1008.5 |
| 20260505051537 | 71 | 122 | 0.0 | 6.0 | 0.00 | 0.00 | 0.00 | 85 | 1008.4 |
| 20260505050115 | 71 | 0 | 0.0 | 3.0 | 0.00 | 0.00 | 0.00 | 84 | 1008.5 |
| 20260505041532 | 71 | 0 | 1.0 | 3.0 | 0.00 | 0.00 | 0.00 | 82 | 1008.3 |
| 20260505040041 | 72 | 0 | 0.0 | 2.0 | 0.00 | 0.00 | 0.00 | 81 | 1008.4 |
| 20260505034540 | 72 | 0 | 0.0 | 1.0 | 0.00 | 0.00 | 0.00 | 80 | 1008.4 |
| 20260505033036 | 72 | 0 | 0.0 | 6.0 | 0.00 | 0.00 | 0.00 | 79 | 1008.2 |
| 20260505031529 | 73 | 0 | 0.0 | 7.0 | 0.00 | 0.00 | 0.00 | 78 | 1008.1 |
| 20260505030032 | 73 | 0 | 1.0 | 4.0 | 0.00 | 0.00 | 0.00 | 77 | 1008.0 |
| 20260505024531 | 73 | 0 | 0.0 | 3.0 | 0.00 | 0.00 | 0.00 | 76 | 1008.1 |
| 20260505023031 | 73 | 226 | 0.0 | 3.0 | 0.00 | 0.00 | 0.00 | 75 | 1008.1 |
| 20260505021533 | 74 | 221 | 0.0 | 2.0 | 0.00 | 0.00 | 0.00 | 72 | 1007.9 |
| 20260505020032 | 74 | 0 | 0.0 | 0.0 | 0.00 | 0.00 | 0.00 | 70 | 1008.0 |
| 20260505014533 | 75 | 0 | 0.0 | 2.0 | 0.00 | 0.00 | 0.00 | 67 | 1008.1 |
| 20260505013032 | 76 | 0 | 0.0 | 5.0 | 0.00 | 0.00 | 0.00 | 66 | 1008.1 |
| 20260505011531 | 77 | 0 | 1.0 | 6.0 | 0.00 | 0.00 | 0.00 | 64 | 1008.0 |
| 20260505010028 | 77 | 0 | 1.0 | 5.0 | 0.00 | 0.00 | 0.00 | 63 | 1008.1 |
| 20260505004535 | 78 | 197 | 2.0 | 4.0 | 0.00 | 0.00 | 0.00 | 62 | 1008.0 |
| 20260505003105 | 79 | 143 | 2.0 | 9.0 | 0.00 | 0.00 | 0.00 | 60 | 1007.9 |
| 20260505001532 | 79 | 223 | 1.0 | 6.0 | 0.00 | 0.00 | 0.00 | 60 | 1007.9 |
| 20260505000036 | 80 | 191 | 3.0 | 9.0 | 0.00 | 0.00 | 0.00 | 58 | 1007.6 |
| 20260504234533 | 82 | 244 | 3.0 | 8.0 | 0.00 | 0.00 | 0.00 | 56 | 1007.8 |
| 20260504233032 | 83 | 212 | 3.0 | 11.0 | 0.00 | 0.00 | 0.00 | 55 | 1008.0 |
| 20260504231533 | 83 | 70 | 2.0 | 9.0 | 0.00 | 0.00 | 0.00 | 54 | 1008.2 |
| 20260504230031 | 83 | 210 | 2.0 | 8.0 | 0.00 | 0.00 | 0.00 | 54 | 1008.2 |
| 20260504224532 | 83 | 149 | 4.0 | 10.0 | 0.00 | 0.00 | 0.00 | 54 | 1008.6 |
| 20260504223033 | 84 | 233 | 2.0 | 12.0 | 0.00 | 0.00 | 0.00 | 54 | 1008.7 |
| 20260504221536 | 85 | 224 | 2.0 | 8.0 | 0.00 | 0.00 | 0.00 | 53 | 1008.7 |
| 20260504220046 | 86 | 224 | 4.0 | 10.0 | 0.00 | 0.00 | 0.00 | 51 | 1008.8 |
| 20260504214539 | 85 | 180 | 2.0 | 10.0 | 0.00 | 0.00 | 0.00 | 51 | 1009.0 |
| 20260504213047 | 86 | 206 | 3.0 | 11.0 | 0.00 | 0.00 | 0.00 | 50 | 1009.0 |
| 20260504211538 | 86 | 203 | 3.0 | 9.0 | 0.00 | 0.00 | 0.00 | 51 | 1009.1 |
| 20260504210033 | 85 | 210 | 3.0 | 9.0 | 0.00 | 0.00 | 0.00 | 50 | 1009.2 |
| 20260504204543 | 85 | 136 | 3.0 | 13.0 | 0.00 | 0.00 | 0.00 | 52 | 1009.8 |
| 20260504203038 | 84 | 194 | 2.0 | 9.0 | 0.00 | 0.00 | 0.00 | 52 | 1009.9 |
| 20260504201539 | 84 | 204 | 2.0 | 10.0 | 0.00 | 0.00 | 0.00 | 54 | 1010.4 |
| 20260504200043 | 84 | 210 | 3.0 | 8.0 | 0.00 | 0.00 | 0.00 | 53 | 1010.6 |
| 20260504194536 | 84 | 217 | 1.0 | 7.0 | 0.00 | 0.00 | 0.00 | 54 | 1010.8 |
| 20260504193042 | 83 | 221 | 3.0 | 9.0 | 0.00 | 0.00 | 0.00 | 54 | 1011.0 |
| 20260504191551 | 83 | 219 | 2.0 | 8.0 | 0.00 | 0.00 | 0.00 | 56 | 1011.3 |
| 20260504190044 | 82 | 211 | 2.0 | 6.0 | 0.00 | 0.00 | 0.00 | 56 | 1011.6 |
| 20260504184551 | 81 | 183 | 1.0 | 9.0 | 0.00 | 0.00 | 0.00 | 56 | 1011.8 |
| 20260504183050 | 81 | 196 | 0.0 | 10.0 | 0.00 | 0.00 | 0.00 | 58 | 1011.8 |
| 20260504181535 | 79 | 246 | 1.0 | 7.0 | 0.00 | 0.00 | 0.00 | 60 | 1012.3 |
| 20260504180034 | 79 | 176 | 3.0 | 8.0 | 0.00 | 0.00 | 0.00 | 60 | 1012.4 |
| 20260504174539 | 78 | 0 | 2.0 | 9.0 | 0.00 | 0.00 | 0.00 | 63 | 1012.4 |
| 20260504173032 | 76 | 122 | 0.0 | 6.0 | 0.00 | 0.00 | 0.00 | 66 | 1012.7 |
| 20260504171532 | 74 | 0 | 0.0 | 9.0 | 0.00 | 0.00 | 0.00 | 66 | 1013.5 |
| 20260504081536 | 60 | 0 | 0.0 | 1.0 | 0.00 | 0.00 | 0.00 | 81 | 1014.3 |